• Join FlightAware (Why Join?)
  • Login
  • US Flag 
05:28AM EDT


 

Airport Tracker/Info


-or-


 

Live Flight TrackerFlight Track Log ✈ UAL4206 ✈ 30-Apr-2013 ✈ KIAD - KCLE

Flight Track Log - Related Links

Times and Time Zones

All times are in EDT time to prevent confusion due to time zone crossing. See the UAL4206 flight status page for this flight to view local times or setup timezone preferences in your user account.

Time Position Orientation Groundspeed Altitude Reporting Facility
EDT Latitude Longitude Course Direction KTS MPH feet Rate Location/Type
10:14PM 38.9667 -77.5500 North 217 250 3,400  Level Potomac TRACON
10:15PM 39.0000 -77.6167 303° West 249 287 6,100 2,220 Climbing Potomac TRACON
10:18PM 39.1736 -77.7336 332° Northwest 282 325 11,300 1,980 Climbing Washington Center
10:19PM 39.3630 -77.4500 North  Level FlightAware Approximate
10:19PM 39.2625 -77.7817 337° Northwest 318 366 13,200  Level Washington Center
10:20PM 39.3533 -77.8328 336° Northwest 345 397 15,100 1,800 Climbing Washington Center
10:21PM 39.4439 -77.8811 338° Northwest 356 410 16,900 1,500 Climbing Washington Center
10:22PM 39.5389 -77.9325 337° Northwest 356 410 18,200 1,380 Climbing Washington Center
10:23PM 39.6297 -77.9814 337° Northwest 356 410 19,700 1,560 Climbing Washington Center
10:24PM 39.7828 -78.0653 337° Northwest 357 411 22,100 1,500 Climbing Cleveland Center
10:25PM 39.8681 -78.1406 326° Northwest 363 418 23,600 1,500 Climbing Cleveland Center
10:26PM 39.9389 -78.2464 311° West 374 430 25,100 1,200 Climbing Cleveland Center
10:27PM 39.9972 -78.3419 309° West 379 436 26,000 420 Climbing Cleveland Center
10:28PM 40.0703 -78.4533 311° West 390 449 26,000  Level Cleveland Center
10:29PM 40.1431 -78.5678 310° West 407 468 26,000  Level Cleveland Center
10:30PM 40.2203 -78.6881 310° West 421 484 26,000  Level Cleveland Center
10:31PM 40.2994 -78.8083 311° West 421 484 26,000  Level Cleveland Center
10:32PM 40.3722 -78.9344 307° West 426 490 26,000  Level Cleveland Center
10:33PM 40.4447 -79.0608 307° West 436 502 26,000  Level Cleveland Center
10:34PM 40.5172 -79.1903 306° West 436 502 26,000  Level Cleveland Center
10:35PM 40.5917 -79.3225 307° West 441 507 26,000  Level Cleveland Center
10:36PM 40.6639 -79.4500 307° West 441 507 26,000  Level Cleveland Center
10:37PM 40.7339 -79.5803 305° West 447 514 26,000  Level Cleveland Center
10:38PM 40.8058 -79.7108 306° West 447 514 26,000  Level Cleveland Center
10:39PM 40.8778 -79.8417 306° West 442 509 26,000  Level Cleveland Center
10:40PM 40.9514 -79.9728 307° West 447 514 26,000  Level Cleveland Center
10:41PM 41.0231 -80.1014 306° West 447 514 26,000 -300 Level Cleveland Center
10:42PM 41.0944 -80.2306 306° West 447 514 25,500 -900 Descending Cleveland Center
10:43PM 41.1592 -80.3569 304° West 442 509 24,200 -840 Descending Cleveland Center
10:44PM 41.2303 -80.4864 306° West 435 501 23,900 -1,380 Descending Cleveland Center
10:45PM 41.3014 -80.6219 305° West 430 495 21,500 -2,520 Descending Cleveland Center
10:46PM 41.3594 -80.7519 301° West 413 475 18,900 -2,760 Descending Cleveland Center
10:47PM 41.4092 -80.8794 298° West 399 459 16,000 -3,060 Descending Cleveland Center
10:48PM 41.4403 -80.9597 297° West 362 417 13,700 -3,000 Descending Cleveland Center
10:48PM 41.4528 -80.9931 297° West 370 426 13,000 -2,340 Descending Cleveland Center
10:49PM 41.4731 -81.0986 284° West 350 403 11,100 -1,800 Descending Cleveland Center
10:50PM 41.4850 -81.2317 277° West 363 418 9,800 -1,020 Descending Cleveland Center
10:51PM 41.4928 -81.3206 277° West 277 319 9,200 -960 Descending Cleveland Center
10:51PM 41.4947 -81.3511 275° West 319 367 8,700 -1,860 Descending Cleveland Center
10:53PM 41.5100 -81.5286 277° West 267 307 5,500 -1,560 Descending Cleveland Center
10:54PM 41.5092 -81.6119 269° West 244 281 4,600 -900 Descending Cleveland Center
10:54PM 41.5069 -81.6394 264° West 261 300 4,400 -840 Descending Cleveland Center
10:55PM 41.5000 -81.7031 262° West 239 275 3,800 -900 Descending Cleveland Center